Regional Weather Roundup
Issued by NWS Green Bay, WI

Home | Current Version | Previous Version | Text Only | Print | Product List | Glossary On
Versions: 1 2 3 4 5 6 7 8 9 10 11 12 13 14 15 16 17 18 19 20 21 22 23 24 25 26 27 28 29 30 31 32 33 34 35 36 37 38 39 40 41 42 43 44 45 46 47 48 49 50
000
ASUS43 KGRB 030911
RWRGRB

NORTH-CENTRAL AND NORTHEAST WISCONSIN REGIONAL WEATHER ROUNDUP
NATIONAL WEATHER SERVICE GREEN BAY WI
400 AM CDT THU SEP 03 2015

WIZ005-009-010>012-018-019-031000-
NORTH CENTRAL WISCONSIN

CITY           SKY/WX    TMP DP  RH WIND       PRES   REMARKS
IRONWOOD         N/A     55  55 100 CALM      29.95R VSB 1/2
MANITOWISH WTR FOG       62  62 100 CALM      29.97F VSB 1/2
ARBOR VITAE    MOCLDY    64  63  94 CALM      29.96F
EAGLE RIVER    CLOUDY    63  63 100 NE5       29.96S FOG
LAND O LAKES   FOG       63  62  99 CALM      29.98S VSB 3/4
RHINELANDER    CLOUDY    65  63  93 NE5       29.97S
PHILLIPS       CLOUDY    63  63 100 NE7       29.96S
ANTIGO         CLOUDY    64  64  99 N6        29.95R
TOMAHAWK       CLOUDY    64  63  96 CALM      29.96S
MERRILL        CLOUDY    65  65 100 CALM      29.95S
$$

WIZ013-073-031000-
NORTHEAST WISCONSIN

CITY           SKY/WX    TMP DP  RH WIND       PRES   REMARKS
IRON MOUNTAIN  CLOUDY    65  63  93 N5        29.93R
MARINETTE      CLOUDY    66  63  88 E9        29.88S
OCONTO         CLOUDY    66  66 100 CALM      29.89S
$$

WIZ017-030-035>037-045-031000-
CENTRAL WISCONSIN

CITY           SKY/WX    TMP DP  RH WIND       PRES   REMARKS
MEDFORD        CLOUDY    65  65 100 NE3       29.95S FOG
WAUSAU         MOCLDY    68  66  93 NW3       29.92S
MOSINEE        CLOUDY    64  64 100 NW3       29.94S FOG
MARSHFIELD     MOCLDY    68  65  90 CALM      29.93F FOG
WISC RAPIDS    CLOUDY    71  67  87 CALM      29.93F
STEVENS POINT  CLOUDY    67  66  98 CALM      29.93S
WAUPACA        CLOUDY    71  70  98 SW6       29.90F FOG
SHAWANO        NOT AVBL
CLINTONVILLE   CLOUDY    68  66  94 N3        29.89F
WAUTOMA        PTCLDY    70  70 100 CALM      29.91F
$$

WIZ038-039-048-051-031000-
FOX VALLEY

CITY           SKY/WX    TMP DP  RH WIND       PRES   REMARKS
NWS GREEN BAY  CLOUDY    70  69  97 CALM      29.89R FOG
APPLETON       TSTM      68  68 100 S9        29.88F
OSHKOSH        CLOUDY    73  70  90 CALM      29.91R
FOND DU LAC    MOCLDY    73  69  87 N10       29.92R
$$

WIZ022-050-052-031000-
EAST CENTRAL WISCONSIN

CITY           SKY/WX    TMP DP  RH WIND       PRES   REMARKS
EPHRAIM        CLOUDY    65  65  99 E7        29.88F FOG
STURGEON BAY   CLOUDY    66  63  88 E3        29.90F
MANITOWOC      TSTM      69  66  90 MISG      29.88F
SHEBOYGAN      MOCLDY    72  67  84 N12G23    29.92R
$$

LMZ563-521-522-541>543-031000-
LAKESHORE

STATION/POSITION TIME  TEMP    WIND        PRES    VSBY  WAVE
                       AIR SEA DIR/SP/G                  HT/PER
                 (UTC) (F)     (DEG/KT/KT) (MB)    (MI)  (FT/S)
SHEBOYGAN LKSHOR 0900   73     330/ 15/ 19 1013.3R
KEWAUNEE LKSHORE 0800   58      30/  6/  8 1011.0F
ALGOMA MARINA    0814           70/  7/  7   N/A
NORTHPORT PIER   0800   66      90/ 15/ 21 1012.5F
N MID LAKE BUOY  0850   67 66   90/ 17/ 21 1011.9F         2/ 4
S GREEN BAY BUOY 0900   66 66   20/  2/  2 1013.3R
SISTER BAY LKSHO 0841   66     130/ 10/ 14   N/A
CHAMBERS ISLAND  0800   67      70/  7/ 11 1012.2F
MENOMINEE LKSHOR 0800   65     140/  1/  2 1010.6F
$$


USA.gov is the U.S. government's official web portal to all federal, state and local government web resources and services.